Tracking 19562 objects as of 22-Mar-2019
HD Live streaming from Space Station
objects crossing your sky now

GLOBALSTAR M043

Track GLOBALSTAR M043 now!
10-day predictions
GLOBALSTAR M043 is classified as:


NORAD ID: 25874
Int'l Code: 1999-041C
Perigee: 2,027.9 km
Apogee: 2,050.2 km
Inclination: 51.9 °
Period: 127.9 minutes
Semi major axis: 8410 km
RCS: 2.4086 m2 (large)
Launch date: July 25, 1999
Source: Globalstar (GLOB)
Launch site: AIR FORCE EASTERN TEST RANGE (AFETR)
aabbcc
Your satellite tracking list
Your tracking list is empty




NASA's NSSDC Master Catalog

Two Line Element Set (TLE):
1 25874U 99041C   19079.82639581 -.00000039 +00000-0 +85814-3 0  9999
2 25874 051.9438 005.4276 0013241 029.4255 014.3381 11.25656147866075
Source of the keplerian elements: AFSPC